DAL5299 KROC-KJFK

Flight info

Callsign DAL5299
Flight time N/A
Altitude 28000
Route BEEPS Q140 YODAA IGN IGN1
Aircraft CRJ9/M-SDFGIRWY/S

Departure

Time 2026-04-25 20:21
Airport Frederick Douglass Greater Rochester International Airport (KROC)

Arrival

Time N/A
Airport John F. Kennedy International Airport (KJFK)
Time Latitude Longitude Altitude Speed Heading
2026-04-25 20:09 43.12702 -77.66725 559 ft 0 kts 141°
2026-04-25 20:11 43.12703 -77.66725 559 ft 0 kts 141°
2026-04-25 20:14 43.12716 -77.66740 567 ft 4 kts 141°
2026-04-25 20:14 43.12736 -77.66762 563 ft 4 kts 141°
2026-04-25 20:14 43.12750 -77.66761 567 ft 0 kts 212°
2026-04-25 20:16 43.12746 -77.66766 560 ft 5 kts 225°
2026-04-25 20:16 43.12733 -77.66798 567 ft 5 kts 249°
2026-04-25 20:16 43.12723 -77.66851 561 ft 5 kts 256°
2026-04-25 20:17 43.12688 -77.66906 562 ft 10 kts 213°
2026-04-25 20:17 43.12638 -77.66946 565 ft 7 kts 213°
2026-04-25 20:17 43.12608 -77.66974 565 ft 4 kts 213°
2026-04-25 20:17 43.12591 -77.66989 566 ft 4 kts 209°
2026-04-25 20:18 43.12556 -77.67009 570 ft 4 kts 191°
2026-04-25 20:18 43.12530 -77.67013 565 ft 4 kts 194°
2026-04-25 20:18 43.12515 -77.67030 571 ft 3 kts 240°
2026-04-25 20:18 43.12508 -77.67063 566 ft 1 kts 266°
2026-04-25 20:19 43.12508 -77.67094 564 ft 5 kts 275°
2026-04-25 20:19 43.12518 -77.67141 569 ft 5 kts 288°
2026-04-25 20:19 43.12523 -77.67179 567 ft 3 kts 270°
2026-04-25 20:19 43.12520 -77.67209 565 ft 5 kts 256°
2026-04-25 20:20 43.12486 -77.67263 566 ft 11 kts 212°
2026-04-25 20:20 43.12231 -77.67475 558 ft 81 kts 208°
2026-04-25 20:20 43.11549 -77.68051 551 ft 146 kts 211°
2026-04-25 20:20 43.10585 -77.68870 855 ft 175 kts 208°
2026-04-25 20:21 43.09474 -77.69815 1483 ft 205 kts 208°
2026-04-25 20:21 43.08278 -77.70814 2807 ft 185 kts 206°
2026-04-25 20:21 43.07197 -77.71598 4099 ft 183 kts 202°
2026-04-25 20:21 43.05848 -77.72023 4580 ft 214 kts 183°
2026-04-25 20:22 43.04298 -77.71832 5288 ft 234 kts 167°
2026-04-25 20:22 43.03783 -77.71643 5533 ft 240 kts 162°
2026-04-25 20:22 43.01408 -77.69525 6784 ft 262 kts 122°
2026-04-25 20:22 43.00556 -77.67203 7387 ft 285 kts 114°
2026-04-25 20:23 42.99775 -77.64626 7931 ft 308 kts 112°
2026-04-25 20:23 42.98985 -77.61853 8509 ft 329 kts 112°
2026-04-25 20:23 42.98143 -77.58872 9047 ft 351 kts 112°
2026-04-25 20:23 42.97278 -77.55772 9606 ft 369 kts 112°
2026-04-25 20:24 42.96511 -77.52969 10152 ft 334 kts 111°